Location: Lynch Observatory
(39.9540°N, 75.1861°W)
Time: 20:09:21
(UTC-04:00)

ZACube-1 - Pass Details

Date: 24 April 2024
Orbit: 566 x 635 km, 97.7° (Epoch: 28 May)

Event Time Altitude Azimuth Distance (km) Brightness Sun altitude
Rises 03:31:46 0° 19° (NNE) 2,926 ? -26.2°
Reaches altitude 10° 03:34:03 10° 26° (NNE) 2,021 ? -25.9°
Maximum altitude 03:38:16 44° 99° (E) 882 ? -25.3°
Enters shadow 03:39:02 40° 127° (SE) 941 ? -25.2°
